Location: Boleita
(10.4833°N, 66.8167°W)
Time: 02:06:56
(UTC+00:00)

Cosmos 1727 Rocket - Pass Details

Date: 08 November 2025
Orbit: 961 x 995 km, 82.9° (Epoch: 09 December)

Event Time Altitude Azimuth Distance (km) Brightness Sun altitude
Rises 08:11:02 0° 181° (S) 3,637 7.1 -31.5°
Reaches altitude 10° 08:13:31 10° 180° (S) 2,689 6.4 -30.9°
Maximum altitude 08:19:40 81° 93° (E) 975 3.9 -29.5°
Drops below altitude 10° 08:25:50 10° 6° (N) 2,694 6.2 -28.0°
Sets 08:28:20 0° 6° (N) 3,643 6.9 -27.4°
